STARLINK-3817, 52367

Orbit data source: Space-Track

STARLINK-3817, 52367 is a payload satellite owned by SpaceX/Seattle (US) in LEO that was launched on Fri, 29 Apr 2022 UTC via an FALCON 9 launch vehicle from the Air Force Eastern Test Range (AFETR). Payload-class satellites include a variety of spacecraft equipped with specific instruments for various scientific and technological missions. These include communications satellites like Starlink; space stations such as the ISS; scientific satellites like the Hubble; Earth observation satellites from companies like Planet Labs, Umbra, and HawkEye 360; GPS; miniature CubeSats for education and research; and military/defense satellites.

Loading next visibility...
Identifier
52367, 2022-045AN
Orbit
LEO
Country
Flag of USUS
Related business
Manufacturer
SpaceX/Seattle
Mission
Operational Commercial Communications
Bus & Motor
STARLINK, Unknown motor
Mass
297 kg wet, ~275 kg dry
Launch date (UTC)
2022-04-29 (4 years ago)
Launch vehicle
FALCON 9
Launch site
Air Force Eastern Test Range (AFETR)
Object type
Payload
Rocket body
Debris
Shape & HBR
Box + 1 Pan, 10.1 m
Radar Cross Section
11.087 m², Large (>1 m²)

Expand to show TLE details & history
Last TLE update: 3 days ago

TLE from 3 days ago
0 STARLINK-3817
1 52367U 22045AN  26170.92403446 -.00000098  00000-0  11929-4 0  9998
2 52367  53.1621  90.0634 0001519  92.7102 267.4064 15.08834670231357
Epoch: 2026-06-19T22:10Z
TLE epoch observation values (Epoch: 2026-06-19T22:10:36.577Z)
Latitude
0.00004°
Longitude
-150.73501°
Altitude
540.699 km
Speed
7.593 km/s
True Right ascension
06h 00m 15s
True Declination
0° 00' 00"
Sunlit
Object was in daylight at epoch
Visualization orbit readout
Latitude
Unknown
Longitude
Unknown
Altitude
Unknown
Speed
Unknown
Apparent Right ascension
Unknown
Apparent Declination
Unknown
Sunlit
N/A
Visualization observer readout
Local Sidereal Time
21:41:02
Azimuth
Unknown
Elevation
Unknown
Doppler factor
Unknown
Orbital elements
Apogee altitude
541.064 km
Perigee altitude
538.963 km
Semi-major axis
6,918.15 km
Eccentricity
0.00015
Inclination
53.1621°
RAAN
90.0634°
Arg. of periapsis
92.7102°
True anomaly
267.38901°
Mean anomaly
267.4064°
Eccentric anomaly
267.39771°
Mean motion
3.77188 °/min
Orbital period
95.44 mins
BSTAR
0.000011929
Loading maneuver chart data...
Computing Atmospheric mass density...
Loading historical data...
Loading historical data...
Loading historical data...
Loading historical data...
Loading historical data...
Loading historical data...
Loading historical data...

Documentation

Showing up to 5 results
|